Date String (YYYY-MM-DD hh:mm:ss) UTC,Instrument flags,Ambient pressure (hPa),Sample flow (lpm),Bypass flow (lpm),Sample temperature (°C),Ambient temperature (°C),ASC tube jacket temperature (°C),LED temperature (°C),Box temperature (°C),Sample RH (%),Span deviation,Mass concentration (μg/m³),Mass concentration (μg/m³),Mass concentration (μg/m³)
DateTimeUTC,F1_M11,P_M11,Q1_M11,Q2_M11,T1_M11,T2_M11,T3_M11,T4_M11,T5_M11,U1_M11,ZSPAN_M11,X0_M11,X2_M11,X1_M11
2022-03-26 16:00:00,,0824.2,5.00,0.00,27.5,26.7,00.0,36.3,29.3,15.6,0000.0,0018.33,0006.90,0004.79
2022-03-26 16:01:00,,0824.2,5.00,0.00,27.5,26.7,00.0,36.3,29.3,15.3,0000.0,0018.68,0006.84,0004.69
2022-03-26 16:02:00,,0824.1,5.02,0.00,27.5,26.7,00.0,36.3,29.3,14.9,0000.0,0017.71,0006.74,0004.60
2022-03-26 16:03:00,,0824.1,5.00,0.00,27.5,26.7,00.0,36.3,29.4,14.8,0000.0,0016.99,0006.63,0004.53
2022-03-26 16:04:00,,0824.1,5.00,0.00,27.5,26.7,00.0,36.3,29.4,14.6,0000.0,0016.84,0006.58,0004.47
2022-03-26 16:05:00,,0824.1,5.00,0.00,27.5,26.7,00.0,36.4,29.4,14.4,0000.0,0016.95,0006.53,0004.40
2022-03-26 16:06:00,,0824.2,4.99,0.00,27.6,26.8,00.0,36.4,29.4,13.9,0000.0,0016.56,0006.43,0004.32
2022-03-26 16:07:00,,0824.2,5.00,0.00,27.6,26.8,00.0,36.4,29.4,14.0,0000.0,0015.59,0006.28,0004.20
2022-03-26 16:08:00,,0824.2,5.02,0.00,27.6,26.8,00.0,36.4,29.4,14.5,0000.0,0014.34,0006.16,0004.14
2022-03-26 16:09:00,,0824.3,5.00,0.00,27.6,26.8,00.0,36.4,29.4,14.6,0000.0,0013.85,0006.09,0004.11
2022-03-26 16:10:00,,0824.3,4.99,0.00,27.6,26.8,00.0,36.5,29.5,14.9,0000.0,0013.97,0006.02,0004.13
2022-03-26 16:11:00,,0824.3,4.99,0.00,27.6,26.8,00.0,36.5,29.5,15.0,0000.0,0015.05,0006.05,0004.18
2022-03-26 16:12:00,,0824.3,5.01,0.00,27.6,26.8,00.0,36.5,29.5,15.4,0000.0,0014.37,0006.00,0004.26
2022-03-26 16:13:00,,0824.3,4.99,0.00,27.6,26.9,00.0,36.5,29.5,15.6,0000.0,0014.57,0006.14,0004.38
2022-03-26 16:14:00,,0824.3,5.00,0.00,27.7,26.9,00.0,36.5,29.5,16.0,0000.0,0015.36,0006.31,0004.49
2022-03-26 16:15:00,,0824.3,5.00,0.00,27.7,26.9,00.0,36.5,29.5,15.6,0000.0,0015.47,0006.45,0004.64
2022-03-26 16:16:00,,0824.3,5.00,0.00,27.7,26.9,00.0,36.5,29.5,15.3,0000.0,0015.68,0006.60,0004.80
2022-03-26 16:17:00,,0824.2,5.00,0.00,27.7,26.9,00.0,36.5,29.5,15.2,0001.3,0015.83,0006.76,0004.96
2022-03-26 16:18:00,,0824.2,5.00,0.00,27.7,26.9,00.0,36.6,29.5,15.2,0003.4,0016.06,0006.96,0005.12
2022-03-26 16:19:00,,0824.2,5.00,0.00,27.7,26.9,00.0,36.6,29.5,15.3,0003.6,0017.32,0007.12,0005.22
2022-03-26 16:20:00,,0824.2,5.01,0.00,27.8,27.0,00.0,36.6,29.6,15.4,0003.3,0017.59,0007.20,0005.28
2022-03-26 16:21:00,,0824.2,5.01,0.00,27.8,27.0,00.0,36.6,29.6,15.7,0003.5,0017.87,0007.30,0005.32
2022-03-26 16:22:00,,0824.2,5.00,0.00,27.8,27.0,00.0,36.6,29.6,15.6,0003.8,0017.65,0007.31,0005.29
2022-03-26 16:23:00,,0824.1,4.99,0.00,27.8,27.0,00.0,36.6,29.6,15.4,0003.8,0018.02,0007.33,0005.24
2022-03-26 16:24:00,,0824.1,5.01,0.00,27.8,27.1,00.0,36.7,29.7,15.2,0003.4,0019.30,0007.19,0005.14
2022-03-26 16:25:00,,0824.1,5.01,0.00,27.8,27.1,00.0,36.7,29.7,14.7,0002.9,0018.89,0007.01,0005.01
2022-03-26 16:26:00,,0824.0,4.99,0.00,27.9,27.1,00.0,36.7,29.7,14.2,0002.5,0019.39,0006.83,0004.85
2022-03-26 16:27:00,,0824.1,4.99,0.00,27.9,27.1,00.0,36.7,29.7,14.5,0001.8,0019.41,0006.61,0004.68
2022-03-26 16:28:00,,0824.1,5.00,0.00,27.9,27.2,00.0,36.7,29.7,14.9,0002.1,0019.85,0006.53,0004.53
2022-03-26 16:29:00,,0824.1,5.01,0.00,27.9,27.2,00.0,36.7,29.8,14.5,0000.8,0019.89,0006.39,0004.40
2022-03-26 16:30:00,,0824.1,4.99,0.00,27.9,27.2,00.0,36.8,29.8,14.6,0000.0,0019.00,0006.21,0004.27
2022-03-26 16:31:00,,0824.1,5.00,0.00,28.0,27.2,00.0,36.8,29.8,15.1,0000.0,0018.23,0006.02,0004.17
2022-03-26 16:32:00,,0824.0,5.00,0.00,28.0,27.2,00.0,36.8,29.8,14.3,0000.0,0019.30,0005.92,0004.05
2022-03-26 16:33:00,,0824.1,4.99,0.00,28.0,27.2,00.0,36.8,29.8,14.7,0000.0,0019.38,0005.80,0003.97
2022-03-26 16:34:00,,0824.0,4.99,0.00,28.0,27.2,00.0,36.8,29.9,14.9,0000.0,0019.04,0005.70,0003.93
2022-03-26 16:35:00,,0824.0,5.01,0.00,28.0,27.3,00.0,36.8,29.9,15.3,0000.0,0018.27,0005.77,0003.95
2022-03-26 16:36:00,,0824.0,4.99,0.00,28.0,27.3,00.0,36.9,29.9,14.5,0000.0,0017.99,0005.82,0003.96
2022-03-26 16:37:00,,0824.1,5.01,0.00,28.1,27.3,00.0,36.9,29.9,15.1,0000.0,0017.12,0005.89,0004.04
2022-03-26 16:38:00,,0824.1,4.99,0.00,28.1,27.3,00.0,36.9,29.9,15.0,0000.0,0017.40,0005.96,0004.11
2022-03-26 16:39:00,,0824.0,5.00,0.00,28.1,27.3,00.0,36.9,30.0,15.6,0000.0,0017.75,0006.01,0004.19
2022-03-26 16:40:00,,0824.1,5.01,0.00,28.1,27.3,00.0,36.9,30.0,15.6,0000.0,0017.98,0006.12,0004.29
2022-03-26 16:41:00,,0824.1,4.99,0.00,28.1,27.3,00.0,36.9,30.0,15.0,0000.0,0018.13,0006.25,0004.37
2022-03-26 16:42:00,,0824.1,5.00,0.00,28.1,27.4,00.0,37.0,30.0,15.1,0000.0,0018.19,0006.31,0004.44
2022-03-26 16:43:00,,0824.1,5.01,0.00,28.2,27.4,00.0,37.0,30.0,15.3,0000.9,0017.89,0006.30,0004.50
2022-03-26 16:44:00,,0824.1,4.99,0.00,28.2,27.4,00.0,37.0,30.0,15.3,0001.8,0017.73,0006.37,0004.57
2022-03-26 16:45:00,,0824.0,5.02,0.00,28.2,27.4,00.0,37.0,30.0,14.8,0001.5,0017.38,0006.37,0004.58
2022-03-26 16:46:00,,0824.1,4.99,0.00,28.2,27.5,00.0,37.0,30.1,15.1,0000.6,0016.99,0006.32,0004.56
2022-03-26 16:47:00,,0824.1,4.99,0.00,28.2,27.5,00.0,37.0,30.1,15.2,0000.6,0017.00,0006.28,0004.55
2022-03-26 16:48:00,,0824.1,5.01,0.00,28.3,27.5,00.0,37.1,30.1,14.8,0000.5,0017.09,0006.19,0004.52
2022-03-26 16:49:00,,0824.0,4.99,0.00,28.3,27.5,00.0,37.1,30.1,13.8,-000.1,0017.34,0006.14,0004.44
2022-03-26 16:50:00,,0824.1,5.00,0.00,28.3,27.5,00.0,37.1,30.1,14.1,0000.0,0017.82,0006.02,0004.34
2022-03-26 16:51:00,,0824.1,5.00,0.00,28.3,27.5,00.0,37.1,30.2,13.9,0000.0,0017.84,0005.83,0004.22
2022-03-26 16:52:00,,0824.1,4.99,0.00,28.3,27.6,00.0,37.1,30.2,14.2,0000.0,0018.05,0005.66,0004.12
2022-03-26 16:53:00,,0824.1,5.01,0.00,28.4,27.6,00.0,37.2,30.2,13.2,0000.0,0018.01,0005.64,0004.04
2022-03-26 16:54:00,,0824.1,5.01,0.00,28.4,27.6,00.0,37.2,30.2,13.3,0000.0,0017.32,0005.63,0003.95
2022-03-26 16:55:00,,0824.1,4.99,0.00,28.4,27.6,00.0,37.2,30.2,14.0,0000.0,0016.52,0005.58,0003.87
2022-03-26 16:56:00,,0824.0,4.99,0.00,28.4,27.7,00.0,37.2,30.2,14.6,0000.0,0017.60,0005.60,0003.81
2022-03-26 16:57:00,,0824.1,5.01,0.00,28.4,27.7,00.0,37.2,30.3,15.0,0000.0,0017.89,0005.61,0003.80
2022-03-26 16:58:00,,0824.0,5.00,0.00,28.4,27.7,00.0,37.3,30.3,15.4,0000.0,0018.95,0005.68,0003.83
2022-03-26 16:59:00,,0824.0,4.99,0.00,28.5,27.7,00.0,37.3,30.3,15.3,0000.0,0020.87,0005.76,0003.88
